Voltar ao catálogo

IHI-SAT2

AtivoCiênciaSSO
NORAD 66772·PAYLOAD·🇯🇵 Japan

Lançado Nov 28, 2025 de Vandenberg Space Force Base

Loading…

Próximas Passagens (próximas 24 horas)

TLE

AtualizadoSource: Space-Track

Época: Sep 13, 2026, 17:03 UTC

1 66772U 25276DL  26256.71086826  .00004216  00000-0  18563-3 0  9998
2 66772  97.4164 329.5734 0000338 130.6003 229.5263 15.22383425 43912

Acompanhe IHI-SAT2 em tempo real com AllMySat

Download on the App Store